User: anonymous   Login
Location: Morlupo
(42.1333°N, 12.5000°E)
Time: 11:34:26
(UTC+00:00)
Language:

CSL-04 Debris - Orbit

View from above orbital plane
View from above orbital plane
View from above satellite
View from above satellite

Ground track
Ground track

The orbit data is extracted from the following two-line orbital elements,

1 25733U 99025D   20337.70732258  .00000174  00000-0  11015-3 0  9997
2 25733  98.9331   6.6805 0014699 200.9985 159.0587 14.16408029113513
Epoch (UTC): 02 December 2020 16:58:32
Eccentricity: 0.0014699
inclination: 98.9331°
perigee height: 827 km
apogee height: 848 km
right ascension of ascending node: 6.6805°
argument of perigee: 200.9985°
revolutions per day: 14.16408029
mean anomaly at epoch: 159.0587°
orbit number at epoch: 11351

The dashed part of the orbit path shows where the satellite is in the earth's shadow,  

DLR